RYR65JG EPKK-EGGP

Flight info

Callsign RYR65JG
Flight time 2h 12m
Altitude 38000
Route OMFOL DCT DINOV T738 LASIS DCT BOLBO DCT POVEL L986 SAS DCT RKN L980 FLEVO L602 SPY DCT RAVLO Y70 VEGUS
Aircraft B38M/M-SDE1FGHILORVWXY/HB1

Departure

Time 2026-05-04 22:37
Airport Kraków John Paul II International Airport (EPKK)

Arrival

Time 2026-05-05 00:50
Airport Liverpool John Lennon Airport (EGGP)
Time Latitude Longitude Altitude Speed Heading
2026-05-04 22:08 50.07317 19.79920 791 ft 0 kts 167°
2026-05-04 22:24 50.07320 19.79919 792 ft 3 kts 168°
2026-05-04 22:24 50.07346 19.79911 792 ft 4 kts 168°
2026-05-04 22:24 50.07371 19.79899 792 ft 4 kts 146°
2026-05-04 22:25 50.07380 19.79877 792 ft 3 kts 78°
2026-05-04 22:25 50.07376 19.79849 792 ft 0 kts 78°
2026-05-04 22:29 50.07379 19.79871 792 ft 4 kts 78°
2026-05-04 22:29 50.07388 19.79933 792 ft 8 kts 78°
2026-05-04 22:30 50.07401 19.80031 792 ft 10 kts 78°
2026-05-04 22:30 50.07418 19.80152 792 ft 12 kts 78°
2026-05-04 22:30 50.07437 19.80282 792 ft 11 kts 77°
2026-05-04 22:30 50.07482 19.80383 792 ft 13 kts 20°
2026-05-04 22:31 50.07570 19.80422 792 ft 13 kts
2026-05-04 22:31 50.07664 19.80398 792 ft 15 kts 348°
2026-05-04 22:31 50.07765 19.80363 792 ft 12 kts 347°
2026-05-04 22:31 50.07825 19.80343 792 ft 7 kts 347°
2026-05-04 22:32 50.07833 19.80340 792 ft 0 kts 347°
2026-05-04 22:35 50.07838 19.80338 792 ft 2 kts 347°
2026-05-04 22:35 50.07865 19.80329 792 ft 7 kts 347°
2026-05-04 22:35 50.07938 19.80304 792 ft 14 kts 347°
2026-05-04 22:36 50.08011 19.80249 791 ft 9 kts 298°
2026-05-04 22:36 50.08011 19.80186 792 ft 0 kts 257°
2026-05-04 22:36 50.08009 19.80172 792 ft 5 kts 258°
2026-05-04 22:36 50.07953 19.79770 791 ft 80 kts 258°
2026-05-04 22:37 50.07781 19.78527 793 ft 152 kts 258°
2026-05-04 22:37 50.07531 19.76710 1191 ft 179 kts 258°
2026-05-04 22:37 50.07275 19.74773 2104 ft 182 kts 255°
2026-05-04 22:37 50.06997 19.72836 3027 ft 190 kts 255°
2026-05-04 22:38 50.06703 19.70711 3760 ft 209 kts 255°
2026-05-04 22:38 50.06389 19.68435 4634 ft 221 kts 255°
2026-05-04 22:38 50.06042 19.66048 5545 ft 232 kts 256°
2026-05-04 22:38 50.05673 19.63513 6339 ft 249 kts 257°
2026-05-04 22:39 50.05287 19.60782 7044 ft 267 kts 257°
2026-05-04 22:39 50.04887 19.57949 8071 ft 268 kts 257°
2026-05-04 22:39 50.04483 19.55092 9119 ft 273 kts 256°
2026-05-04 22:39 50.04072 19.52187 10134 ft 276 kts 256°
2026-05-04 22:40 50.03648 19.49195 10803 ft 292 kts 256°
2026-05-04 22:40 50.03195 19.46004 11296 ft 311 kts 256°
2026-05-04 22:40 50.02849 19.42626 11957 ft 324 kts 269°
2026-05-04 22:40 50.03298 19.39194 12943 ft 328 kts 288°
2026-05-04 22:41 50.04176 19.35882 13777 ft 334 kts 289°
2026-05-04 22:41 50.05080 19.32528 14543 ft 338 kts 289°
2026-05-04 22:41 50.06007 19.29134 15278 ft 343 kts 290°
2026-05-04 22:41 50.06951 19.25706 16013 ft 347 kts 290°
2026-05-04 22:42 50.07910 19.22233 16721 ft 351 kts 290°
2026-05-04 22:42 50.08882 19.18716 17420 ft 356 kts 290°
2026-05-04 22:42 50.09864 19.15156 18105 ft 360 kts 290°
2026-05-04 22:42 50.10859 19.11551 18712 ft 364 kts 290°
2026-05-04 22:43 50.11861 19.07912 19327 ft 367 kts 291°
2026-05-04 22:43 50.12870 19.04246 19942 ft 370 kts 291°
2026-05-04 22:43 50.13887 19.00541 20524 ft 373 kts 291°
2026-05-04 22:43 50.14909 18.96809 21099 ft 377 kts 291°
2026-05-04 22:44 50.15942 18.93035 21672 ft 380 kts 291°
2026-05-04 22:44 50.16983 18.89224 22240 ft 383 kts 291°
2026-05-04 22:44 50.18017 18.85434 22795 ft 387 kts 291°
2026-05-04 22:44 50.19072 18.81557 23344 ft 390 kts 292°
2026-05-04 22:45 50.20150 18.77590 23819 ft 393 kts 292°
2026-05-04 22:45 50.22280 18.69734 24753 ft 398 kts 292°
2026-05-04 22:45 50.23349 18.65734 25204 ft 400 kts 291°
2026-05-04 22:46 50.24409 18.61699 25663 ft 402 kts 291°
2026-05-04 22:46 50.25475 18.57644 26106 ft 405 kts 291°
2026-05-04 22:46 50.26547 18.53560 26542 ft 407 kts 291°
2026-05-04 22:46 50.27623 18.49454 26968 ft 410 kts 291°
2026-05-04 22:47 50.28704 18.45321 27385 ft 412 kts 291°
2026-05-04 22:47 50.29795 18.41163 27803 ft 414 kts 291°
2026-05-04 22:47 50.30889 18.36983 28209 ft 417 kts 291°
2026-05-04 22:47 50.31989 18.32772 28613 ft 419 kts 291°
2026-05-04 22:48 50.33092 18.28544 29005 ft 421 kts 291°
2026-05-04 22:48 50.34201 18.24286 29391 ft 424 kts 291°
2026-05-04 22:48 50.35313 18.20004 29769 ft 426 kts 291°
2026-05-04 22:48 50.36430 18.15696 30120 ft 428 kts 291°
2026-05-04 22:49 50.37553 18.11358 30434 ft 430 kts 291°
2026-05-04 22:49 50.38680 18.06999 30756 ft 432 kts 291°
2026-05-04 22:49 50.39807 18.02627 31082 ft 433 kts 291°
2026-05-04 22:49 50.40936 17.98237 31422 ft 435 kts 291°
2026-05-04 22:50 50.42065 17.93842 31799 ft 435 kts 291°
2026-05-04 22:50 50.43196 17.89435 32092 ft 437 kts 291°
2026-05-04 22:50 50.44330 17.85007 32435 ft 438 kts 291°
2026-05-04 22:50 50.45527 17.80628 32896 ft 436 kts 293°
2026-05-04 22:51 50.46777 17.76307 33329 ft 434 kts 293°
2026-05-04 22:51 50.48010 17.71994 33745 ft 433 kts 293°
2026-05-04 22:51 50.49236 17.67678 34127 ft 432 kts 293°
2026-05-04 22:51 50.50456 17.63374 34466 ft 431 kts 293°
2026-05-04 22:52 50.51674 17.59069 34786 ft 431 kts 293°
2026-05-04 22:52 50.52886 17.54774 35098 ft 430 kts 292°
2026-05-04 22:52 50.54097 17.50475 35410 ft 430 kts 292°
2026-05-04 22:52 50.55306 17.46176 35717 ft 429 kts 292°
2026-05-04 22:53 50.56510 17.41887 36025 ft 429 kts 292°
2026-05-04 22:53 50.57711 17.37604 36350 ft 427 kts 292°
2026-05-04 22:53 50.58891 17.33383 36635 ft 427 kts 292°
2026-05-04 22:53 50.60085 17.29110 36915 ft 426 kts 292°
2026-05-04 22:54 50.61275 17.24839 37174 ft 426 kts 292°
2026-05-04 22:54 50.62464 17.20567 37436 ft 425 kts 292°
2026-05-04 22:54 50.63649 17.16298 37696 ft 425 kts 292°
2026-05-04 22:54 50.64829 17.12042 37928 ft 424 kts 292°
2026-05-04 22:55 50.67188 17.03506 37936 ft 423 kts 292°
2026-05-04 22:55 50.69527 16.95015 37946 ft 422 kts 292°
2026-05-04 22:56 50.71862 16.86507 37946 ft 423 kts 292°
2026-05-04 22:56 50.74191 16.77988 37949 ft 423 kts 292°
2026-05-04 22:57 50.76515 16.69460 37947 ft 423 kts 291°
2026-05-04 22:57 50.78832 16.60921 37953 ft 423 kts 291°
2026-05-04 22:58 50.81140 16.52386 37947 ft 422 kts 291°
2026-05-04 22:58 50.83440 16.43852 37943 ft 422 kts 291°
2026-05-04 22:59 50.85733 16.35310 37944 ft 422 kts 291°
2026-05-04 22:59 50.88021 16.26757 37947 ft 422 kts 291°
2026-05-04 23:00 50.90304 16.18196 37956 ft 422 kts 290°
2026-05-04 23:00 50.92585 16.09660 37944 ft 420 kts 293°
2026-05-04 23:01 50.95740 16.01816 37908 ft 424 kts 301°
2026-05-04 23:01 50.99007 15.94046 37961 ft 424 kts 301°
2026-05-04 23:02 51.02263 15.86317 37952 ft 423 kts 301°
2026-05-04 23:02 51.05540 15.78520 37963 ft 424 kts 301°
2026-05-04 23:03 51.08812 15.70712 37954 ft 425 kts 301°
2026-05-04 23:03 51.12084 15.62883 37947 ft 425 kts 301°
2026-05-04 23:04 51.15445 15.55138 37946 ft 425 kts 301°
2026-05-04 23:04 51.18800 15.47383 37941 ft 425 kts 301°
2026-05-04 23:05 51.22151 15.39609 37950 ft 425 kts 301°
2026-05-04 23:05 51.25502 15.31811 37951 ft 427 kts 301°
2026-05-04 23:06 51.28289 15.25309 37945 ft 427 kts 301°
2026-05-04 23:06 51.31633 15.17484 37941 ft 426 kts 301°
2026-05-04 23:07 51.34969 15.09654 37944 ft 426 kts 301°
2026-05-04 23:07 51.38302 15.01811 37942 ft 426 kts 301°
2026-05-04 23:08 51.41215 14.93629 37945 ft 420 kts 285°
2026-05-04 23:08 51.43214 14.84778 37928 ft 423 kts 287°
2026-05-04 23:09 51.45208 14.75885 37940 ft 424 kts 287°
2026-05-04 23:09 51.47165 14.67045 37945 ft 423 kts 287°
2026-05-04 23:10 51.49126 14.58137 37942 ft 424 kts 287°
2026-05-04 23:10 51.51081 14.49217 37957 ft 423 kts 287°
2026-05-04 23:11 51.53023 14.40318 37950 ft 423 kts 287°
2026-05-04 23:11 51.54962 14.31398 37936 ft 423 kts 287°
2026-05-04 23:12 51.56893 14.22474 37937 ft 423 kts 287°
2026-05-04 23:12 51.58817 14.13542 37954 ft 423 kts 287°
2026-05-04 23:13 51.60734 14.04605 37950 ft 423 kts 287°
2026-05-04 23:13 51.62645 13.95657 37942 ft 423 kts 286°
2026-05-04 23:14 51.64550 13.86698 37945 ft 423 kts 286°
2026-05-04 23:14 51.66446 13.77738 37946 ft 423 kts 286°
2026-05-04 23:15 51.68325 13.68821 37941 ft 423 kts 286°
2026-05-04 23:15 51.70207 13.59849 37941 ft 422 kts 285°
2026-05-04 23:16 51.72082 13.50876 37941 ft 422 kts 285°
2026-05-04 23:16 51.73950 13.41890 37934 ft 422 kts 285°
2026-05-04 23:17 51.75812 13.32898 37936 ft 422 kts 285°
2026-05-04 23:17 51.77669 13.23897 37953 ft 422 kts 286°
2026-05-04 23:18 51.79468 13.14873 37933 ft 421 kts 280°
2026-05-04 23:18 51.80821 13.05663 37923 ft 422 kts 281°
2026-05-04 23:19 51.82225 12.96457 37931 ft 422 kts 281°
2026-05-04 23:19 51.83631 12.87259 37936 ft 422 kts 281°
2026-05-04 23:20 51.85031 12.78050 37937 ft 422 kts 281°
2026-05-04 23:20 51.86413 12.68904 37943 ft 422 kts 281°
2026-05-04 23:21 51.87800 12.59678 37942 ft 422 kts 281°
2026-05-04 23:21 51.89179 12.50451 37949 ft 422 kts 281°
2026-05-04 23:22 51.90549 12.41230 37947 ft 422 kts 281°
2026-05-04 23:22 51.91913 12.31990 37952 ft 422 kts 281°
2026-05-04 23:23 51.93270 12.22745 37958 ft 422 kts 280°
2026-05-04 23:23 51.94618 12.13510 37960 ft 421 kts 280°
2026-05-04 23:24 51.95960 12.04262 37958 ft 421 kts 280°
2026-05-04 23:24 51.97293 11.95012 37958 ft 421 kts 280°
2026-05-04 23:25 51.98620 11.85754 37962 ft 421 kts 280°
2026-05-04 23:25 51.99940 11.76490 37965 ft 422 kts 279°
2026-05-04 23:26 52.01257 11.67188 37964 ft 423 kts 279°
2026-05-04 23:26 52.02566 11.57883 37964 ft 423 kts 279°
2026-05-04 23:27 52.03864 11.48608 37962 ft 423 kts 279°
2026-05-04 23:27 52.05159 11.39287 37965 ft 423 kts 279°
2026-05-04 23:28 52.06445 11.29971 37973 ft 423 kts 279°
2026-05-04 23:28 52.07728 11.20626 37972 ft 424 kts 279°
2026-05-04 23:29 52.09004 11.11272 37968 ft 424 kts 279°
2026-05-04 23:29 52.10273 11.01916 37970 ft 424 kts 279°
2026-05-04 23:30 52.11536 10.92552 37970 ft 424 kts 279°
2026-05-04 23:30 52.12783 10.83243 37984 ft 424 kts 279°
2026-05-04 23:31 52.14031 10.73879 37967 ft 423 kts 279°
2026-05-04 23:31 52.15274 10.64512 37967 ft 423 kts 279°
2026-05-04 23:32 52.16511 10.55139 37971 ft 423 kts 278°
2026-05-04 23:32 52.17739 10.45764 37966 ft 423 kts 278°
2026-05-04 23:33 52.18961 10.36376 37981 ft 423 kts 278°
2026-05-04 23:33 52.20176 10.26985 37962 ft 423 kts 278°
2026-05-04 23:34 52.21383 10.17590 37969 ft 423 kts 278°
2026-05-04 23:34 52.22582 10.08189 37965 ft 423 kts 278°
2026-05-04 23:35 52.23775 9.98782 37969 ft 423 kts 278°
2026-05-04 23:35 52.24971 9.89377 37970 ft 424 kts 278°
2026-05-04 23:36 52.26189 9.79937 37962 ft 426 kts 278°
2026-05-04 23:36 52.27399 9.70478 37962 ft 426 kts 278°
2026-05-04 23:37 52.28593 9.61075 37965 ft 426 kts 278°
2026-05-04 23:37 52.29788 9.51604 37964 ft 426 kts 278°
2026-05-04 23:38 52.30975 9.42135 37960 ft 425 kts 278°
2026-05-04 23:38 52.32153 9.32662 37958 ft 426 kts 278°
2026-05-04 23:39 52.33325 9.23184 37963 ft 425 kts 278°
2026-05-04 23:39 52.34488 9.13699 37967 ft 425 kts 278°
2026-05-04 23:40 52.35645 9.04206 37968 ft 425 kts 277°
2026-05-04 23:40 52.36793 8.94712 37977 ft 425 kts 278°
2026-05-04 23:41 52.37937 8.85191 37968 ft 427 kts 278°
2026-05-04 23:41 52.39075 8.75651 37963 ft 427 kts 277°
2026-05-04 23:42 52.40206 8.66093 37962 ft 427 kts 277°
2026-05-04 23:42 52.41330 8.56527 37963 ft 427 kts 277°
2026-05-04 23:43 52.42444 8.46973 37968 ft 427 kts 277°
2026-05-04 23:43 52.43554 8.37385 37970 ft 429 kts 277°
2026-05-04 23:44 52.44658 8.27779 37961 ft 429 kts 277°
2026-05-04 23:44 52.45747 8.18229 37962 ft 429 kts 277°
2026-05-04 23:45 52.46836 8.08611 37969 ft 429 kts 277°
2026-05-04 23:45 52.47916 7.98992 37969 ft 429 kts 277°
2026-05-04 23:46 52.48991 7.89342 37972 ft 431 kts 277°
2026-05-04 23:46 52.50062 7.79655 37969 ft 431 kts 277°
2026-05-04 23:47 52.51125 7.69972 37967 ft 431 kts 277°
2026-05-04 23:47 52.52179 7.60286 37996 ft 431 kts 277°
2026-05-04 23:48 52.53224 7.50601 37979 ft 430 kts 277°
2026-05-04 23:48 52.54263 7.40903 37991 ft 432 kts 277°
2026-05-04 23:49 52.55296 7.31183 37991 ft 432 kts 277°
2026-05-04 23:49 52.56320 7.21464 37990 ft 432 kts 277°
2026-05-04 23:50 52.57335 7.11745 37986 ft 432 kts 277°
2026-05-04 23:50 52.58344 7.02008 37980 ft 432 kts 277°
2026-05-04 23:51 52.59346 6.92257 37988 ft 434 kts 277°
2026-05-04 23:51 52.60344 6.82466 37978 ft 434 kts 277°
2026-05-04 23:52 52.61332 6.72680 37983 ft 434 kts 277°
2026-05-04 23:52 52.62306 6.62954 37983 ft 434 kts 277°
2026-05-04 23:53 52.63279 6.53153 37982 ft 434 kts 277°
2026-05-04 23:53 52.64244 6.43356 37984 ft 434 kts 277°
2026-05-04 23:54 52.65047 6.35125 37985 ft 434 kts 277°
2026-05-04 23:54 52.65992 6.25366 37985 ft 434 kts 277°
2026-05-04 23:55 52.66934 6.15545 37989 ft 434 kts 277°
2026-05-04 23:56 52.68334 6.00792 38003 ft 434 kts 277°
2026-05-04 23:56 52.69259 5.90930 37994 ft 435 kts 277°
2026-05-04 23:57 52.70175 5.81074 37995 ft 435 kts 277°
2026-05-04 23:57 52.71082 5.71212 37997 ft 435 kts 277°
2026-05-04 23:58 52.71982 5.61347 38000 ft 435 kts 277°
2026-05-04 23:58 52.72873 5.51480 38007 ft 435 kts 277°
2026-05-04 23:59 52.73757 5.41602 38002 ft 435 kts 277°
2026-05-04 23:59 52.74632 5.31718 38004 ft 436 kts 277°
2026-05-05 00:00 52.75500 5.21819 38008 ft 435 kts 277°
2026-05-05 00:00 52.76359 5.11929 38013 ft 435 kts 277°
2026-05-05 00:01 52.77204 5.02101 38023 ft 435 kts 277°
2026-05-05 00:01 52.78048 4.92185 38017 ft 436 kts 277°
2026-05-05 00:02 52.78884 4.82270 38022 ft 436 kts 277°
2026-05-05 00:02 52.79711 4.72353 38020 ft 436 kts 277°
2026-05-05 00:03 52.80529 4.62437 38008 ft 436 kts 276°
2026-05-05 00:03 52.81340 4.52509 38009 ft 436 kts 276°
2026-05-05 00:04 52.82143 4.42570 38016 ft 436 kts 276°
2026-05-05 00:04 52.82937 4.32629 38011 ft 436 kts 276°
2026-05-05 00:05 52.83723 4.22692 38007 ft 436 kts 276°
2026-05-05 00:05 52.84501 4.12747 38012 ft 436 kts 276°
2026-05-05 00:06 52.85269 4.02807 38028 ft 436 kts 276°
2026-05-05 00:06 52.86032 3.92834 38021 ft 437 kts 276°
2026-05-05 00:07 52.86787 3.82844 38015 ft 437 kts 276°
2026-05-05 00:07 52.87529 3.72918 38020 ft 437 kts 276°
2026-05-05 00:08 52.88268 3.62921 38036 ft 437 kts 276°
2026-05-05 00:08 52.88998 3.52921 38044 ft 437 kts 276°
2026-05-05 00:09 52.89722 3.42889 38035 ft 439 kts 276°
2026-05-05 00:09 52.90438 3.32839 38033 ft 439 kts 276°
2026-05-05 00:10 52.91147 3.22778 37906 ft 440 kts 276°
2026-05-05 00:10 52.91497 3.17758 37776 ft 439 kts 275°
2026-05-05 00:10 52.91997 3.12771 37655 ft 439 kts 281°
2026-05-05 00:10 52.92641 3.07826 37532 ft 439 kts 281°
2026-05-05 00:11 52.93289 3.02881 37413 ft 439 kts 281°
2026-05-05 00:11 52.93939 2.97934 37283 ft 440 kts 281°
2026-05-05 00:11 52.94591 2.92967 37154 ft 441 kts 281°
2026-05-05 00:11 52.95243 2.87996 37015 ft 441 kts 281°
2026-05-05 00:12 52.95890 2.83032 36877 ft 441 kts 281°
2026-05-05 00:12 52.96529 2.78122 36742 ft 441 kts 281°
2026-05-05 00:12 52.97173 2.73156 36623 ft 441 kts 281°
2026-05-05 00:12 52.97814 2.68189 36500 ft 441 kts 281°
2026-05-05 00:13 52.98455 2.63214 36376 ft 441 kts 281°
2026-05-05 00:13 52.99093 2.58241 36248 ft 441 kts 281°
2026-05-05 00:13 52.99729 2.53264 36128 ft 441 kts 281°
2026-05-05 00:13 53.00363 2.48288 36008 ft 442 kts 281°
2026-05-05 00:14 53.00998 2.43282 35897 ft 443 kts 281°
2026-05-05 00:14 53.01631 2.38275 35763 ft 443 kts 281°
2026-05-05 00:14 53.02262 2.33263 35636 ft 443 kts 281°
2026-05-05 00:14 53.02892 2.28252 35520 ft 443 kts 281°
2026-05-05 00:15 53.03519 2.23237 35401 ft 443 kts 281°
2026-05-05 00:15 53.04145 2.18219 35282 ft 444 kts 281°
2026-05-05 00:15 53.04768 2.13204 35166 ft 443 kts 281°
2026-05-05 00:15 53.05389 2.08185 35046 ft 443 kts 281°
2026-05-05 00:16 53.06007 2.03159 34929 ft 444 kts 281°
2026-05-05 00:16 53.06624 1.98132 34804 ft 446 kts 282°
2026-05-05 00:16 53.07245 1.93056 34686 ft 448 kts 282°
2026-05-05 00:16 53.07864 1.87973 34570 ft 449 kts 282°
2026-05-05 00:17 53.08481 1.82888 34451 ft 449 kts 282°
2026-05-05 00:17 53.09098 1.77793 34335 ft 449 kts 282°
2026-05-05 00:17 53.09712 1.72689 34219 ft 450 kts 282°
2026-05-05 00:17 53.10324 1.67585 34104 ft 450 kts 282°
2026-05-05 00:18 53.10937 1.62464 33978 ft 451 kts 282°
2026-05-05 00:18 53.11546 1.57349 33840 ft 451 kts 282°
2026-05-05 00:18 53.12152 1.52235 33712 ft 450 kts 282°
2026-05-05 00:18 53.12759 1.47102 33563 ft 453 kts 282°
2026-05-05 00:19 53.13366 1.41944 33430 ft 455 kts 282°
2026-05-05 00:19 53.13972 1.36773 33297 ft 455 kts 282°
2026-05-05 00:19 53.14575 1.31605 33157 ft 454 kts 282°
2026-05-05 00:19 53.15167 1.26514 33031 ft 454 kts 282°
2026-05-05 00:20 53.15765 1.21347 32902 ft 454 kts 282°
2026-05-05 00:20 53.16361 1.16183 32757 ft 454 kts 281°
2026-05-05 00:20 53.16954 1.11019 32622 ft 453 kts 281°
2026-05-05 00:20 53.17544 1.05865 32469 ft 453 kts 281°
2026-05-05 00:21 53.18132 1.00703 32311 ft 453 kts 281°
2026-05-05 00:21 53.18721 0.95521 32169 ft 456 kts 281°
2026-05-05 00:21 53.19309 0.90318 32027 ft 457 kts 281°
2026-05-05 00:21 53.19896 0.85100 31888 ft 457 kts 281°
2026-05-05 00:22 53.20480 0.79895 31742 ft 457 kts 281°
2026-05-05 00:22 53.21061 0.74688 31599 ft 457 kts 281°
2026-05-05 00:22 53.21642 0.69476 31465 ft 457 kts 281°
2026-05-05 00:22 53.22221 0.64259 31318 ft 457 kts 281°
2026-05-05 00:23 53.22795 0.59050 31191 ft 457 kts 281°
2026-05-05 00:23 53.23365 0.53841 31055 ft 456 kts 281°
2026-05-05 00:23 53.23934 0.48628 30913 ft 458 kts 281°
2026-05-05 00:23 53.24504 0.43386 30772 ft 460 kts 281°
2026-05-05 00:24 53.25075 0.38117 30639 ft 461 kts 281°
2026-05-05 00:24 53.25644 0.32843 30494 ft 462 kts 281°
2026-05-05 00:24 53.26212 0.27554 30359 ft 463 kts 281°
2026-05-05 00:24 53.26779 0.22252 30222 ft 464 kts 281°
2026-05-05 00:25 53.27343 0.16952 30083 ft 464 kts 280°
2026-05-05 00:25 53.27906 0.11644 29927 ft 464 kts 280°
2026-05-05 00:25 53.28467 0.06336 29771 ft 464 kts 281°
2026-05-05 00:25 53.29345 0.01168 29606 ft 462 kts 295°
2026-05-05 00:26 53.30812 -0.03605 29489 ft 463 kts 297°
2026-05-05 00:26 53.32220 -0.08457 29342 ft 463 kts 296°
2026-05-05 00:26 53.33628 -0.13301 29215 ft 463 kts 296°
2026-05-05 00:26 53.35037 -0.18139 29338 ft 460 kts 296°
2026-05-05 00:27 53.36408 -0.22854 29180 ft 444 kts 296°
2026-05-05 00:27 53.37740 -0.27442 28904 ft 432 kts 296°
2026-05-05 00:27 53.39038 -0.31921 28635 ft 421 kts 296°
2026-05-05 00:27 53.40311 -0.36318 28368 ft 418 kts 296°
2026-05-05 00:28 53.41559 -0.40632 28038 ft 416 kts 296°
2026-05-05 00:28 53.42814 -0.44978 27636 ft 412 kts 296°
2026-05-05 00:28 53.44057 -0.49292 27141 ft 407 kts 295°
2026-05-05 00:28 53.45267 -0.53500 26632 ft 394 kts 295°
2026-05-05 00:29 53.46439 -0.57582 26129 ft 383 kts 295°
2026-05-05 00:29 53.47578 -0.61570 25580 ft 374 kts 295°
2026-05-05 00:29 53.48686 -0.65458 25119 ft 364 kts 295°
2026-05-05 00:29 53.49766 -0.69248 24644 ft 356 kts 294°
2026-05-05 00:30 53.50819 -0.72953 24194 ft 350 kts 294°
2026-05-05 00:30 53.51870 -0.76653 23719 ft 352 kts 294°
2026-05-05 00:30 53.52926 -0.80375 23124 ft 355 kts 294°
2026-05-05 00:30 53.53980 -0.84094 22518 ft 348 kts 294°
2026-05-05 00:31 53.55003 -0.87713 22118 ft 337 kts 294°
2026-05-05 00:31 53.56007 -0.91268 21710 ft 337 kts 294°
2026-05-05 00:31 53.57013 -0.94834 21242 ft 337 kts 294°
2026-05-05 00:31 53.58016 -0.98399 20797 ft 337 kts 294°
2026-05-05 00:32 53.59006 -1.01919 20337 ft 328 kts 294°
2026-05-05 00:32 53.59965 -1.05360 19900 ft 325 kts 291°
2026-05-05 00:32 53.60482 -1.09049 19376 ft 326 kts 270°
2026-05-05 00:32 53.60260 -1.12778 19001 ft 316 kts 262°
2026-05-05 00:33 53.59957 -1.16445 18595 ft 317 kts 261°
2026-05-05 00:33 53.59631 -1.20131 18147 ft 318 kts 261°
2026-05-05 00:33 53.59292 -1.23795 17681 ft 313 kts 261°
2026-05-05 00:33 53.58952 -1.27365 17264 ft 306 kts 261°
2026-05-05 00:34 53.58613 -1.30873 17074 ft 301 kts 261°
2026-05-05 00:34 53.58269 -1.34379 16835 ft 304 kts 261°
2026-05-05 00:34 53.57923 -1.37900 16513 ft 305 kts 261°
2026-05-05 00:34 53.57574 -1.41423 16113 ft 304 kts 260°
2026-05-05 00:35 53.57230 -1.44893 15728 ft 298 kts 260°
2026-05-05 00:35 53.56888 -1.48325 15357 ft 297 kts 260°
2026-05-05 00:35 53.56547 -1.51737 14975 ft 295 kts 260°
2026-05-05 00:35 53.56207 -1.55133 14575 ft 293 kts 260°
2026-05-05 00:36 53.56030 -1.58530 14157 ft 291 kts 269°
2026-05-05 00:36 53.56039 -1.61918 13746 ft 289 kts 270°
2026-05-05 00:36 53.56063 -1.65310 13301 ft 291 kts 270°
2026-05-05 00:36 53.56085 -1.68729 12865 ft 293 kts 270°
2026-05-05 00:37 53.56101 -1.72167 12427 ft 294 kts 270°
2026-05-05 00:37 53.56115 -1.75571 11970 ft 288 kts 270°
2026-05-05 00:37 53.56125 -1.78909 11537 ft 283 kts 270°
2026-05-05 00:37 53.56132 -1.82196 11109 ft 280 kts 270°
2026-05-05 00:38 53.56136 -1.85459 10686 ft 279 kts 270°
2026-05-05 00:38 53.56138 -1.88715 10280 ft 277 kts 270°
2026-05-05 00:38 53.56136 -1.91907 9901 ft 274 kts 270°
2026-05-05 00:38 53.56132 -1.95068 9493 ft 267 kts 270°
2026-05-05 00:39 53.56085 -1.98139 9124 ft 258 kts 262°
2026-05-05 00:39 53.55532 -2.00968 8764 ft 254 kts 243°
2026-05-05 00:39 53.54656 -2.03522 8426 ft 252 kts 240°
2026-05-05 00:39 53.53752 -2.06033 8128 ft 250 kts 240°
2026-05-05 00:40 53.52849 -2.08535 7909 ft 250 kts 240°
2026-05-05 00:40 53.51941 -2.11034 7664 ft 250 kts 240°
2026-05-05 00:40 53.51039 -2.13515 7425 ft 249 kts 240°
2026-05-05 00:40 53.50138 -2.15987 7179 ft 247 kts 240°
2026-05-05 00:41 53.49534 -2.17641 7017 ft 245 kts 240°
2026-05-05 00:41 53.48647 -2.20070 6772 ft 243 kts 240°
2026-05-05 00:41 53.47763 -2.22484 6544 ft 242 kts 240°
2026-05-05 00:41 53.46883 -2.24888 6300 ft 241 kts 240°
2026-05-05 00:42 53.46018 -2.27251 6066 ft 240 kts 240°
2026-05-05 00:42 53.45136 -2.29667 5803 ft 239 kts 240°
2026-05-05 00:42 53.44280 -2.32016 5554 ft 239 kts 240°
2026-05-05 00:42 53.43406 -2.34419 5315 ft 237 kts 240°
2026-05-05 00:43 53.42572 -2.36716 5061 ft 231 kts 240°
2026-05-05 00:43 53.41736 -2.39019 4798 ft 225 kts 240°
2026-05-05 00:43 53.40936 -2.41214 4536 ft 217 kts 240°
2026-05-05 00:43 53.40158 -2.43331 4301 ft 216 kts 240°
2026-05-05 00:44 53.39366 -2.45474 4046 ft 216 kts 240°
2026-05-05 00:44 53.38567 -2.47614 3770 ft 216 kts 240°
2026-05-05 00:44 53.37769 -2.49738 3496 ft 213 kts 240°
2026-05-05 00:44 53.36991 -2.51784 3284 ft 201 kts 240°
2026-05-05 00:45 53.36260 -2.53685 3054 ft 188 kts 240°
2026-05-05 00:45 53.35578 -2.55442 2932 ft 172 kts 240°
2026-05-05 00:45 53.34960 -2.57132 2915 ft 169 kts 250°
2026-05-05 00:45 53.34621 -2.58995 2966 ft 168 kts 263°
2026-05-05 00:46 53.34480 -2.60931 2808 ft 168 kts 268°
2026-05-05 00:46 53.34382 -2.62854 2585 ft 161 kts 269°
2026-05-05 00:46 53.34296 -2.64686 2374 ft 156 kts 269°
2026-05-05 00:46 53.34213 -2.66485 2170 ft 152 kts 269°
2026-05-05 00:47 53.34134 -2.68199 1955 ft 144 kts 269°
2026-05-05 00:47 53.34058 -2.69853 1754 ft 142 kts 270°
2026-05-05 00:47 53.33983 -2.71496 1542 ft 141 kts 270°
2026-05-05 00:47 53.33907 -2.73132 1343 ft 141 kts 269°
2026-05-05 00:48 53.33832 -2.74761 1151 ft 140 kts 269°
2026-05-05 00:48 53.33759 -2.76391 918 ft 141 kts 269°
2026-05-05 00:48 53.33693 -2.78025 716 ft 141 kts 268°
2026-05-05 00:48 53.33613 -2.79663 526 ft 142 kts 266°
2026-05-05 00:49 53.33528 -2.81304 348 ft 142 kts 266°
2026-05-05 00:49 53.33459 -2.82922 183 ft 138 kts 265°
2026-05-05 00:49 53.33386 -2.84479 84 ft 125 kts 266°
2026-05-05 00:49 53.33338 -2.85541 84 ft 66 kts 265°
2026-05-05 00:50 53.33310 -2.86137 82 ft 32 kts 265°
2026-05-05 00:50 53.33325 -2.86377 69 ft 15 kts 310°
2026-05-05 00:50 53.33390 -2.86423 81 ft 9 kts 354°
2026-05-05 00:50 53.33438 -2.86421 85 ft 5 kts 18°
2026-05-05 00:51 53.33455 -2.86400 90 ft 2 kts 51°
2026-05-05 00:51 53.33460 -2.86384 87 ft 0 kts 66°
2026-05-05 00:53 53.33461 -2.86379 87 ft 2 kts 69°
2026-05-05 00:53 53.33469 -2.86283 90 ft 14 kts 85°
2026-05-05 00:53 53.33478 -2.86092 87 ft 18 kts 85°
2026-05-05 00:53 53.33495 -2.85949 88 ft 11 kts 42°
2026-05-05 00:54 53.33565 -2.85937 88 ft 9 kts
2026-05-05 00:54 53.33597 -2.85857 92 ft 10 kts 82°
2026-05-05 00:54 53.33604 -2.85723 88 ft 11 kts 85°
2026-05-05 00:54 53.33608 -2.85637 90 ft 6 kts 85°
2026-05-05 00:55 53.33620 -2.85592 89 ft 5 kts 33°
2026-05-05 00:55 53.33644 -2.85585 91 ft 2 kts
2026-05-05 00:55 53.33649 -2.85586 90 ft 1 kts 358°
2026-05-05 00:55 53.33654 -2.85586 89 ft 0 kts 357°
2026-05-05 00:56 53.33657 -2.85586 88 ft 0 kts 357°